| time (UTC) | temp F | wind direction | speed knots | gust knots | rain 1hr in | rain 24hr in | rain mn in | humidity % | barometer mb |
| 20260508125442 | 88 | 30 | 1.7 | 7.0 | 0.00 | 0.00 | 0.00 | 70 | 1009.7 |
| 20260508124938 | 88 | 50 | 0.0 | 11.3 | 0.00 | 0.00 | 0.00 | 70 | 1009.5 |
| 20260508124430 | 89 | 11 | 0.9 | 11.3 | 0.00 | 0.00 | 0.00 | 69 | 1009.5 |
| 20260508123917 | 89 | 33 | 1.7 | 11.3 | 0.00 | 0.00 | 0.00 | 69 | 1009.4 |
| 20260508123412 | 89 | 39 | 1.7 | 14.8 | 0.00 | 0.00 | 0.00 | 69 | 1009.2 |
| 20260508122849 | 89 | 60 | 6.1 | 14.8 | 0.00 | 0.00 | 0.00 | 69 | 1009.2 |
| 20260508122341 | 89 | 55 | 0.0 | 24.3 | 0.00 | 0.00 | 0.00 | 69 | 1009.2 |
| 20260508121829 | 89 | 65 | 3.5 | 24.3 | 0.00 | 0.00 | 0.00 | 69 | 1009.2 |
| 20260508121331 | 89 | 64 | 0.9 | 14.8 | 0.00 | 0.00 | 0.00 | 69 | 1009.0 |
| 20260508120820 | 89 | 111 | 8.7 | 14.8 | 0.00 | 0.00 | 0.00 | 69 | 1009.1 |
| 20260508120311 | 89 | 205 | 5.2 | 8.7 | 0.00 | 0.00 | 0.00 | 69 | 1008.8 |
| 20260508115758 | 89 | 66 | 4.3 | 11.3 | 0.00 | 0.00 | 0.00 | 69 | 1009.0 |
| 20260508115654 | 89 | 58 | 4.3 | 11.3 | 0.00 | 0.00 | 0.00 | 69 | 1008.9 |
| 20260508114757 | 89 | 25 | 0.9 | 13.0 | 0.00 | 0.00 | 0.00 | 69 | 1008.8 |
| 20260508114247 | 89 | 300 | 2.6 | 13.0 | 0.00 | 0.00 | 0.00 | 69 | 1008.7 |
| 20260508114137 | 90 | 7 | 2.6 | 13.0 | 0.00 | 0.00 | 0.00 | 69 | 1008.5 |
| 20260508113216 | 90 | 35 | 0.9 | 8.7 | 0.00 | 0.00 | 0.00 | 69 | 1008.5 |
| 20260508112709 | 90 | 298 | 0.0 | 8.7 | 0.00 | 0.00 | 0.00 | 68 | 1008.2 |
| 20260508112201 | 90 | 24 | 0.0 | 8.7 | 0.00 | 0.00 | 0.00 | 68 | 1008.2 |
| 20260508112049 | 90 | 7 | 0.0 | 11.3 | 0.00 | 0.00 | 0.00 | 68 | 1008.3 |
| 20260508111148 | 90 | 56 | 0.0 | 14.8 | 0.00 | 0.00 | 0.00 | 68 | 1008.2 |
| 20260508110635 | 91 | 29 | 0.0 | 14.8 | 0.00 | 0.00 | 0.00 | 68 | 1008.3 |
| 20260508110533 | 91 | 51 | 0.0 | 26.1 | 0.00 | 0.00 | 0.00 | 68 | 1008.3 |
| 20260508105624 | 91 | 40 | 3.5 | 26.1 | 0.00 | 0.00 | 0.00 | 67 | 1008.2 |
| 20260508105112 | 91 | 275 | 3.5 | 14.8 | 0.00 | 0.00 | 0.00 | 67 | 1007.8 |
| 20260508104608 | 91 | 96 | 1.7 | 14.8 | 0.00 | 0.00 | 0.00 | 66 | 1007.8 |
| 20260508104100 | 91 | 37 | 0.9 | 20.0 | 0.00 | 0.00 | 0.00 | 66 | 1007.9 |
| 20260508103603 | 92 | 16 | 7.8 | 20.0 | 0.00 | 0.00 | 0.00 | 66 | 1007.9 |
| 20260508103457 | 92 | 342 | 5.2 | 17.4 | 0.00 | 0.00 | 0.00 | 66 | 1007.7 |
| 20260508102552 | 92 | 66 | 7.8 | 13.0 | 0.00 | 0.00 | 0.00 | 65 | 1007.7 |
| 20260508102032 | 92 | 119 | 1.7 | 13.0 | 0.00 | 0.00 | 0.00 | 65 | 1007.3 |
| 20260508101758 | 92 | 32 | 0.9 | 8.7 | 0.00 | 0.00 | 0.00 | 66 | 1007.4 |
| 20260508101526 | 92 | 32 | 0.9 | 8.7 | 0.00 | 0.00 | 0.00 | 66 | 1007.4 |
| 20260508101013 | 93 | 53 | 0.0 | 11.3 | 0.00 | 0.00 | 0.00 | 66 | 1007.4 |
| 20260508100510 | 93 | 61 | 1.7 | 13.0 | 0.00 | 0.00 | 0.00 | 65 | 1007.3 |
| 20260508100003 | 93 | 20 | 0.0 | 13.0 | 0.00 | 0.00 | 0.00 | 65 | 1007.3 |
| 20260508095450 | 93 | 65 | 2.6 | 11.3 | 0.00 | 0.00 | 0.00 | 65 | 1007.3 |
| 20260508094945 | 93 | 28 | 0.0 | 11.3 | 0.00 | 0.00 | 0.00 | 66 | 1006.9 |
| 20260508094439 | 93 | 30 | 0.9 | 14.8 | 0.00 | 0.00 | 0.00 | 66 | 1006.9 |
| 20260508094346 | 93 | 323 | 7.8 | 20.0 | 0.00 | 0.00 | 0.00 | 67 | 1006.6 |
| 20260508093411 | 93 | 89 | 4.3 | 20.0 | 0.00 | 0.00 | 0.00 | 67 | 1006.5 |
| 20260508093251 | 94 | 190 | 5.2 | 14.8 | 0.00 | 0.00 | 0.00 | 68 | 1006.9 |
| 20260508092359 | 94 | 127 | 3.5 | 14.8 | 0.00 | 0.00 | 0.00 | 68 | 1006.6 |
| 20260508091850 | 94 | 42 | 4.3 | 11.3 | 0.00 | 0.00 | 0.00 | 68 | 1006.5 |
| 20260508091348 | 94 | 57 | 4.3 | 17.4 | 0.00 | 0.00 | 0.00 | 67 | 1006.3 |
| 20260508090836 | 94 | 218 | 0.0 | 17.4 | 0.00 | 0.00 | 0.00 | 66 | 1006.5 |
| 20260508090331 | 95 | 19 | 0.9 | 8.7 | 0.00 | 0.00 | 0.00 | 65 | 1006.6 |
| 20260508085927 | 96 | 213 | 4.3 | 8.7 | 0.00 | 0.00 | 0.00 | 64 | 1006.4 |
| 20260508085812 | 95 | 322 | 6.1 | 8.7 | 0.00 | 0.00 | 0.00 | 65 | 1006.4 |
| 20260508085649 | 95 | 28 | 0.0 | 8.7 | 0.00 | 0.00 | 0.00 | 65 | 1006.2 |
| 20260508084247 | 95 | 342 | 5.2 | 8.7 | 0.00 | 0.00 | 0.00 | 65 | 1006.1 |
| 20260508083744 | 95 | 101 | 1.7 | 4.3 | 0.00 | 0.00 | 0.00 | 65 | 1006.2 |
| 20260508083248 | 95 | 187 | 2.6 | 4.3 | 0.00 | 0.00 | 0.00 | 65 | 1006.2 |
| 20260508082731 | 95 | 24 | 0.9 | 4.3 | 0.00 | 0.00 | 0.00 | 66 | 1006.3 |
| 20260508082219 | 95 | 27 | 0.0 | 7.0 | 0.00 | 0.00 | 0.00 | 65 | 1006.2 |
| 20260508081710 | 94 | 7 | 0.0 | 7.0 | 0.00 | 0.00 | 0.00 | 67 | 1006.1 |
| 20260508081334 | 95 | 11 | 0.9 | 7.0 | 0.00 | 0.00 | 0.00 | 67 | 1006.1 |
| 20260508080526 | 95 | 18 | 1.7 | 8.7 | 0.00 | 0.00 | 0.00 | 66 | 1006.0 |
| 20260508075640 | 94 | 7 | 1.7 | 8.7 | 0.00 | 0.00 | 0.00 | 66 | 1006.2 |
| 20260508075139 | 94 | 170 | 3.5 | 8.7 | 0.00 | 0.00 | 0.00 | 68 | 1006.2 |
| 20260508074736 | 94 | 206 | 1.7 | 11.3 | 0.00 | 0.00 | 0.00 | 67 | 1006.1 |
| 20260508073607 | 95 | 204 | 4.3 | 8.7 | 0.00 | 0.00 | 0.00 | 67 | 1006.1 |
| 20260508073100 | 94 | 35 | 0.0 | 11.3 | 0.00 | 0.00 | 0.00 | 68 | 1006.2 |
| 20260508073001 | 93 | 357 | 1.7 | 13.0 | 0.00 | 0.00 | 0.00 | 69 | 1006.2 |
| 20260508072038 | 92 | 17 | 7.8 | 13.0 | 0.00 | 0.00 | 0.00 | 69 | 1006.4 |
| 20260508071521 | 92 | 19 | 2.6 | 13.0 | 0.00 | 0.00 | 0.00 | 69 | 1006.4 |
| 20260508071001 | 93 | 328 | 3.5 | 20.0 | 0.00 | 0.00 | 0.00 | 70 | 1006.6 |
| 20260508070453 | 93 | 2 | 11.3 | 20.0 | 0.00 | 0.00 | 0.00 | 70 | 1006.5 |
| 20260508065940 | 93 | 319 | 12.2 | 20.0 | 0.00 | 0.00 | 0.00 | 70 | 1006.4 |
| 20260508065432 | 94 | 22 | 8.7 | 20.0 | 0.00 | 0.00 | 0.00 | 70 | 1006.5 |
| 20260508064924 | 94 | 327 | 7.8 | 20.0 | 0.00 | 0.00 | 0.00 | 70 | 1006.4 |
| 20260508064424 | 93 | 3 | 10.4 | 17.4 | 0.00 | 0.00 | 0.00 | 70 | 1006.3 |
| 20260508064100 | 94 | 10 | 8.7 | 21.7 | 0.00 | 0.00 | 0.00 | 69 | 1006.5 |
| 20260508062852 | 96 | 347 | 6.1 | 13.0 | 0.00 | 0.00 | 0.00 | 68 | 1006.5 |
| 20260508062341 | 95 | 221 | 4.3 | 20.0 | 0.00 | 0.00 | 0.00 | 69 | 1006.5 |
| 20260508061829 | 95 | 339 | 14.8 | 20.0 | 0.00 | 0.00 | 0.00 | 69 | 1006.6 |
| 20260508061332 | 94 | 319 | 0.9 | 17.4 | 0.00 | 0.00 | 0.00 | 69 | 1006.9 |
| 20260508060850 | 93 | 320 | 1.7 | 17.4 | 0.00 | 0.00 | 0.00 | 70 | 1006.9 |
| 20260508060702 | 95 | 19 | 5.2 | 14.8 | 0.00 | 0.00 | 0.00 | 69 | 1007.0 |
| 20260508055800 | 94 | 22 | 6.1 | 20.0 | 0.00 | 0.00 | 0.00 | 70 | 1007.0 |
| 20260508055238 | 92 | 93 | 7.0 | 20.0 | 0.00 | 0.00 | 0.00 | 71 | 1007.2 |
| 20260508054735 | 95 | 86 | 2.6 | 20.0 | 0.00 | 0.00 | 0.00 | 69 | 1007.1 |
| 20260508054228 | 94 | 4 | 0.0 | 21.7 | 0.00 | 0.00 | 0.00 | 70 | 1007.2 |
| 20260508054213 | 93 | 337 | 12.2 | 24.3 | 0.00 | 0.00 | 0.00 | 73 | 1007.4 |
| 20260508053417 | 92 | 19 | 1.7 | 20.0 | 0.00 | 0.00 | 0.00 | 74 | 1007.5 |
| 20260508053205 | 93 | 344 | 9.6 | 20.0 | 0.00 | 0.00 | 0.00 | 72 | 1007.3 |
| 20260508051639 | 92 | 7 | 11.3 | 20.0 | 0.00 | 0.00 | 0.00 | 73 | 1007.5 |
| 20260508051129 | 93 | 343 | 10.4 | 20.0 | 0.00 | 0.00 | 0.00 | 73 | 1007.5 |
| 20260508050611 | 92 | 286 | 9.6 | 20.0 | 0.00 | 0.00 | 0.00 | 73 | 1007.7 |
| 20260508050512 | 92 | 1 | 11.3 | 14.8 | 0.00 | 0.00 | 0.00 | 74 | 1008.0 |
| 20260508045545 | 92 | 10 | 0.9 | 14.8 | 0.00 | 0.00 | 0.00 | 72 | 1008.1 |
| 20260508045032 | 92 | 316 | 13.9 | 17.4 | 0.00 | 0.00 | 0.00 | 74 | 1008.2 |
| 20260508044525 | 93 | 17 | 1.7 | 20.0 | 0.00 | 0.00 | 0.00 | 72 | 1008.1 |
| 20260508044025 | 92 | 347 | 7.0 | 20.0 | 0.00 | 0.00 | 0.00 | 73 | 1008.3 |
| 20260508043502 | 92 | 320 | 12.2 | 20.0 | 0.00 | 0.00 | 0.00 | 75 | 1008.4 |
| 20260508042940 | 92 | 2 | 7.8 | 20.0 | 0.00 | 0.00 | 0.00 | 74 | 1008.2 |
| 20260508042436 | 93 | 349 | 7.0 | 17.4 | 0.00 | 0.00 | 0.00 | 72 | 1008.4 |
| 20260508041937 | 92 | 199 | 5.2 | 21.7 | 0.00 | 0.00 | 0.00 | 74 | 1008.4 |
| 20260508041425 | 92 | 292 | 5.2 | 21.7 | 0.00 | 0.00 | 0.00 | 74 | 1008.5 |
| 20260508040905 | 94 | 354 | 0.0 | 20.0 | 0.00 | 0.00 | 0.00 | 72 | 1008.6 |
| 20260508040400 | 94 | 359 | 13.0 | 17.4 | 0.00 | 0.00 | 0.00 | 72 | 1008.6 |
| 20260508035920 | 93 | 209 | 13.0 | 17.4 | 0.00 | 0.00 | 0.00 | 72 | 1008.5 |
| 20260508035850 | 93 | 239 | 7.0 | 20.0 | 0.00 | 0.00 | 0.00 | 72 | 1008.6 |
| 20260508035256 | 92 | 346 | 9.6 | 21.7 | 0.00 | 0.00 | 0.00 | 73 | 1008.6 |
| 20260508034315 | 93 | 258 | 4.3 | 21.7 | 0.00 | 0.00 | 0.00 | 71 | 1008.8 |
| 20260508034219 | 92 | 309 | 0.9 | 21.7 | 0.00 | 0.00 | 0.00 | 72 | 1009.0 |
| 20260508033247 | 91 | 206 | 12.2 | 26.1 | 0.00 | 0.00 | 0.00 | 73 | 1008.9 |
| 20260508032741 | 90 | 208 | 14.8 | 28.7 | 0.00 | 0.00 | 0.00 | 75 | 1009.2 |
| 20260508032238 | 91 | 203 | 10.4 | 28.7 | 0.00 | 0.00 | 0.00 | 74 | 1009.1 |
| 20260508031724 | 90 | 91 | 12.2 | 26.1 | 0.00 | 0.00 | 0.00 | 75 | 1009.2 |
| 20260508031204 | 91 | 39 | 4.3 | 28.7 | 0.00 | 0.00 | 0.00 | 74 | 1009.4 |
| 20260508030645 | 89 | 230 | 9.6 | 28.7 | 0.00 | 0.00 | 0.00 | 76 | 1009.5 |
| 20260508030139 | 90 | 264 | 2.6 | 21.7 | 0.00 | 0.00 | 0.00 | 74 | 1009.2 |
| 20260508025618 | 91 | 210 | 6.1 | 28.7 | 0.00 | 0.00 | 0.00 | 73 | 1009.5 |
| 20260508025100 | 91 | 218 | 4.3 | 28.7 | 0.00 | 0.00 | 0.00 | 73 | 1009.3 |
| 20260508024552 | 91 | 328 | 9.6 | 14.8 | 0.00 | 0.00 | 0.00 | 74 | 1009.4 |
| 20260508024414 | 91 | 2 | 1.7 | 17.4 | 0.00 | 0.00 | 0.00 | 72 | 1009.6 |
| 20260508023536 | 90 | 331 | 9.6 | 14.8 | 0.00 | 0.00 | 0.00 | 74 | 1009.6 |
| 20260508023028 | 90 | 47 | 0.0 | 20.0 | 0.00 | 0.00 | 0.00 | 74 | 1009.7 |
| 20260508022509 | 89 | 173 | 11.3 | 20.0 | 0.00 | 0.00 | 0.00 | 74 | 1009.7 |
| 20260508021952 | 89 | 327 | 7.0 | 17.4 | 0.00 | 0.00 | 0.00 | 76 | 1009.8 |
| 20260508021448 | 89 | 162 | 6.1 | 14.8 | 0.00 | 0.00 | 0.00 | 76 | 1010.1 |
| 20260508020924 | 90 | 298 | 2.6 | 8.7 | 0.00 | 0.00 | 0.00 | 75 | 1010.0 |
| 20260508020407 | 88 | 15 | 2.6 | 13.0 | 0.00 | 0.00 | 0.00 | 76 | 1010.0 |
| 20260508020010 | 88 | 199 | 7.8 | 13.0 | 0.00 | 0.00 | 0.00 | 78 | 1010.1 |
| 20260508014843 | 88 | 2 | 1.7 | 11.3 | 0.00 | 0.00 | 0.00 | 77 | 1010.0 |
| 20260508014329 | 88 | 200 | 2.6 | 13.0 | 0.00 | 0.00 | 0.00 | 77 | 1010.0 |
| 20260508013832 | 87 | 1 | 3.5 | 14.8 | 0.00 | 0.00 | 0.00 | 78 | 1010.1 |
| 20260508013308 | 87 | 26 | 7.8 | 14.8 | 0.00 | 0.00 | 0.00 | 79 | 1010.3 |
| 20260508012803 | 89 | 29 | 0.0 | 13.0 | 0.00 | 0.00 | 0.00 | 76 | 1010.0 |
| 20260508012242 | 89 | 356 | 7.8 | 13.0 | 0.00 | 0.00 | 0.00 | 77 | 1010.2 |
| 20260508011742 | 89 | 5 | 5.2 | 13.0 | 0.00 | 0.00 | 0.00 | 76 | 1010.0 |
| 20260508011652 | 89 | 6 | 5.2 | 14.8 | 0.00 | 0.00 | 0.00 | 77 | 1010.1 |
| 20260508010717 | 89 | 179 | 8.7 | 17.4 | 0.00 | 0.00 | 0.00 | 77 | 1010.2 |
| 20260508010204 | 89 | 20 | 1.7 | 17.4 | 0.00 | 0.00 | 0.00 | 76 | 1010.2 |
| 20260508005702 | 90 | 342 | 6.1 | 8.7 | 0.00 | 0.00 | 0.00 | 76 | 1010.3 |
| 20260508005152 | 90 | 6 | 2.6 | 8.7 | 0.00 | 0.00 | 0.00 | 75 | 1010.3 |
| 20260508004655 | 88 | 39 | 0.9 | 8.7 | 0.00 | 0.00 | 0.00 | 78 | 1010.0 |
| 20260508004146 | 89 | 33 | 0.0 | 14.8 | 0.00 | 0.00 | 0.00 | 77 | 1009.9 |
| 20260508003642 | 88 | 185 | 8.7 | 14.8 | 0.00 | 0.00 | 0.00 | 79 | 1010.1 |
| 20260508003135 | 90 | 32 | 1.7 | 7.0 | 0.00 | 0.00 | 0.00 | 74 | 1009.9 |
| 20260508002614 | 91 | 31 | 0.9 | 8.7 | 0.00 | 0.00 | 0.00 | 73 | 1010.1 |
| 20260508002059 | 90 | 37 | 0.0 | 8.7 | 0.00 | 0.00 | 0.00 | 73 | 1010.3 |
| 20260508001550 | 89 | 172 | 3.5 | 8.7 | 0.00 | 0.00 | 0.00 | 75 | 1010.1 |
| 20260508001057 | 88 | 7 | 1.7 | 4.3 | 0.00 | 0.00 | 0.00 | 76 | 1010.1 |
| 20260508000550 | 89 | 35 | 0.0 | 7.0 | 0.00 | 0.00 | 0.00 | 76 | 1010.2 |
| 20260508000027 | 88 | 37 | 0.9 | 7.0 | 0.00 | 0.00 | 0.00 | 76 | 1010.1 |
| 20260507235521 | 89 | 81 | 1.7 | 7.0 | 0.00 | 0.00 | 0.00 | 75 | 1009.9 |
| 20260507235016 | 88 | 29 | 1.7 | 7.0 | 0.00 | 0.00 | 0.00 | 76 | 1009.9 |
| 20260507234509 | 89 | 94 | 3.5 | 7.0 | 0.00 | 0.00 | 0.00 | 76 | 1009.8 |
| 20260507233958 | 88 | 221 | 0.9 | 7.0 | 0.00 | 0.00 | 0.00 | 76 | 1010.0 |
| 20260507233448 | 86 | 25 | 1.7 | 8.7 | 0.00 | 0.00 | 0.00 | 79 | 1010.1 |
| 20260507232943 | 87 | 15 | 1.7 | 8.7 | 0.00 | 0.00 | 0.00 | 78 | 1010.1 |
| 20260507232451 | 86 | 8 | 1.7 | 7.0 | 0.00 | 0.00 | 0.00 | 78 | 1009.6 |
| 20260507231922 | 87 | 48 | 0.0 | 7.0 | 0.00 | 0.00 | 0.00 | 78 | 1009.7 |
| 20260507231419 | 86 | 287 | 0.9 | 7.0 | 0.00 | 0.00 | 0.00 | 79 | 1009.6 |
| 20260507230910 | 85 | 353 | 1.7 | 4.3 | 0.00 | 0.00 | 0.00 | 80 | 1009.7 |
| 20260507230403 | 86 | 30 | 0.0 | 7.0 | 0.00 | 0.00 | 0.00 | 79 | 1009.9 |
| 20260507230226 | 85 | 59 | 0.0 | 7.0 | 0.00 | 0.00 | 0.00 | 81 | 1009.7 |
| 20260507225349 | 85 | 31 | 2.6 | 7.0 | 0.00 | 0.00 | 0.00 | 81 | 1009.7 |
| 20260507224837 | 84 | 23 | 0.0 | 0.0 | 0.00 | 0.00 | 0.00 | 81 | 1009.9 |
| 20260507224335 | 84 | 28 | 0.0 | 0.0 | 0.00 | 0.00 | 0.00 | 82 | 1009.3 |
| 20260507223930 | 83 | 16 | 0.0 | 0.0 | 0.00 | 0.00 | 0.00 | 82 | 1009.6 |
| 20260507222807 | 83 | 29 | 0.0 | 0.0 | 0.00 | 0.00 | 0.00 | 83 | 1009.6 |
| 20260507222301 | 83 | 25 | 0.0 | 4.3 | 0.00 | 0.00 | 0.00 | 83 | 1009.5 |
| 20260507221750 | 83 | 26 | 0.0 | 4.3 | 0.00 | 0.00 | 0.00 | 83 | 1009.3 |
| 20260507221241 | 83 | 18 | 2.6 | 7.0 | 0.00 | 0.00 | 0.00 | 83 | 1009.5 |
| 20260507220735 | 83 | 24 | 0.0 | 7.0 | 0.00 | 0.00 | 0.00 | 84 | 1009.3 |
| 20260507220231 | 83 | 11 | 0.0 | 4.3 | 0.00 | 0.00 | 0.00 | 83 | 1009.3 |
| 20260507215714 | 83 | 21 | 0.0 | 1.7 | 0.00 | 0.00 | 0.00 | 83 | 1009.2 |
| 20260507215209 | 83 | 20 | 0.0 | 1.7 | 0.00 | 0.00 | 0.00 | 84 | 1009.1 |
| 20260507214704 | 83 | 36 | 0.0 | 1.7 | 0.00 | 0.00 | 0.00 | 83 | 1009.3 |
| 20260507214156 | 82 | 64 | 0.9 | 1.7 | 0.00 | 0.00 | 0.00 | 84 | 1009.1 |
| 20260507213645 | 82 | 36 | 0.0 | 4.3 | 0.00 | 0.00 | 0.00 | 84 | 1009.2 |
| 20260507213136 | 82 | 17 | 1.7 | 4.3 | 0.00 | 0.00 | 0.00 | 84 | 1009.1 |
| 20260507212521 | 82 | 39 | 1.7 | 7.0 | 0.00 | 0.00 | 0.00 | 84 | 1009.1 |
| 20260507211604 | 83 | 10 | 2.6 | 7.0 | 0.00 | 0.00 | 0.00 | 84 | 1008.8 |
| 20260507211233 | 83 | 9 | 1.7 | 4.3 | 0.00 | 0.00 | 0.00 | 84 | 1008.6 |
| 20260507210040 | 82 | 34 | 0.0 | 4.3 | 0.00 | 0.00 | 0.00 | 84 | 1008.7 |
| 20260507205532 | 82 | 17 | 1.7 | 4.3 | 0.00 | 0.00 | 0.00 | 84 | 1008.8 |
| 20260507205017 | 82 | 23 | 0.0 | 1.7 | 0.00 | 0.00 | 0.00 | 84 | 1008.7 |
| 20260507204454 | 82 | 5 | 1.7 | 4.3 | 0.00 | 0.00 | 0.00 | 84 | 1009.1 |
| 20260507203939 | 82 | 7 | 0.9 | 4.3 | 0.00 | 0.00 | 0.00 | 85 | 1008.9 |
| 20260507203426 | 82 | 25 | 0.0 | 7.0 | 0.00 | 0.00 | 0.00 | 86 | 1009.0 |
| 20260507203256 | 82 | 7 | 0.0 | 8.7 | 0.00 | 0.00 | 0.00 | 86 | 1008.5 |
| 20260507202410 | 82 | 22 | 1.7 | 11.3 | 0.00 | 0.00 | 0.00 | 85 | 1008.7 |
| 20260507201903 | 83 | 350 | 2.6 | 20.0 | 0.00 | 0.00 | 0.00 | 84 | 1008.6 |
| 20260507201357 | 83 | 343 | 6.1 | 20.0 | 0.00 | 0.00 | 0.00 | 84 | 1008.6 |
| 20260507200845 | 84 | 18 | 2.6 | 14.8 | 0.00 | 0.00 | 0.00 | 82 | 1008.6 |
| 20260507200352 | 83 | 9 | 7.8 | 14.8 | 0.00 | 0.00 | 0.00 | 82 | 1008.3 |
| 20260507195830 | 83 | 22 | 0.0 | 11.3 | 0.00 | 0.00 | 0.00 | 82 | 1008.6 |
| 20260507195323 | 83 | 356 | 2.6 | 7.0 | 0.00 | 0.00 | 0.00 | 82 | 1008.5 |
| 20260507194804 | 83 | 19 | 0.0 | 1.7 | 0.00 | 0.00 | 0.00 | 82 | 1008.7 |
| 20260507194624 | 83 | 32 | 0.0 | 4.3 | 0.00 | 0.00 | 0.00 | 82 | 1008.5 |
| 20260507193746 | 83 | 22 | 0.9 | 7.0 | 0.00 | 0.00 | 0.00 | 82 | 1008.4 |
| 20260507193242 | 83 | 17 | 0.0 | 8.7 | 0.00 | 0.00 | 0.00 | 82 | 1008.4 |
| 20260507192731 | 84 | 5 | 3.5 | 8.7 | 0.00 | 0.00 | 0.00 | 82 | 1008.3 |
| 20260507192222 | 83 | 19 | 0.0 | 4.3 | 0.00 | 0.00 | 0.00 | 81 | 1008.5 |
| 20260507192059 | 83 | 17 | 2.6 | 8.7 | 0.00 | 0.00 | 0.00 | 81 | 1008.3 |
| 20260507191211 | 83 | 17 | 3.5 | 8.7 | 0.00 | 0.00 | 0.00 | 82 | 1008.4 |
| 20260507191109 | 83 | 17 | 1.7 | 8.7 | 0.00 | 0.00 | 0.00 | 82 | 1008.4 |
| 20260507190302 | 83 | 358 | 2.6 | 8.7 | 0.00 | 0.00 | 0.00 | 82 | 1008.5 |
| 20260507185134 | 83 | 6 | 1.7 | 4.3 | 0.00 | 0.00 | 0.00 | 82 | 1008.3 |
| 20260507184629 | 83 | 19 | 0.0 | 7.0 | 0.00 | 0.00 | 0.00 | 82 | 1008.3 |
| 20260507184524 | 83 | 20 | 0.0 | 13.0 | 0.00 | 0.00 | 0.00 | 82 | 1008.3 |
| 20260507183600 | 83 | 23 | 4.3 | 14.8 | 0.00 | 0.00 | 0.00 | 82 | 1008.3 |
| 20260507183053 | 84 | 353 | 7.8 | 14.8 | 0.00 | 0.00 | 0.00 | 82 | 1008.4 |
| 20260507182545 | 84 | 8 | 0.9 | 13.0 | 0.00 | 0.00 | 0.00 | 82 | 1008.3 |
| 20260507182038 | 84 | 353 | 5.2 | 11.3 | 0.00 | 0.00 | 0.00 | 81 | 1008.3 |
| 20260507181525 | 84 | 26 | 0.9 | 7.0 | 0.00 | 0.00 | 0.00 | 81 | 1008.1 |
| 20260507181021 | 84 | 1 | 1.7 | 8.7 | 0.00 | 0.00 | 0.00 | 81 | 1008.2 |
| 20260507180511 | 84 | 25 | 2.6 | 8.7 | 0.00 | 0.00 | 0.00 | 81 | 1008.4 |
| 20260507180003 | 84 | 338 | 0.0 | 7.0 | 0.00 | 0.00 | 0.00 | 80 | 1008.4 |
| 20260507175455 | 84 | 11 | 2.6 | 8.7 | 0.00 | 0.00 | 0.00 | 80 | 1008.4 |
| 20260507174947 | 84 | 25 | 1.7 | 8.7 | 0.00 | 0.00 | 0.00 | 80 | 1008.4 |
| 20260507174452 | 84 | 28 | 0.0 | 7.0 | 0.00 | 0.00 | 0.00 | 80 | 1008.2 |
| 20260507173935 | 84 | 12 | 1.7 | 8.7 | 0.00 | 0.00 | 0.00 | 80 | 1008.2 |
| 20260507173837 | 84 | 357 | 2.6 | 8.7 | 0.00 | 0.00 | 0.00 | 80 | 1008.4 |
| 20260507172916 | 84 | 9 | 3.5 | 8.7 | 0.00 | 0.00 | 0.00 | 80 | 1008.6 |
| 20260507172411 | 84 | 11 | 2.6 | 8.7 | 0.00 | 0.00 | 0.00 | 80 | 1008.7 |
| 20260507172329 | 84 | 8 | 2.6 | 8.7 | 0.00 | 0.00 | 0.00 | 80 | 1008.7 |
| 20260507171350 | 84 | 13 | 3.5 | 8.7 | 0.00 | 0.00 | 0.00 | 80 | 1008.6 |
| 20260507170849 | 84 | 339 | 2.6 | 7.0 | 0.00 | 0.00 | 0.00 | 80 | 1008.6 |
| 20260507170334 | 85 | 8 | 3.5 | 8.7 | 0.00 | 0.00 | 0.00 | 80 | 1008.5 |
| 20260507165831 | 85 | 14 | 3.5 | 8.7 | 0.00 | 0.00 | 0.00 | 79 | 1008.6 |
| 20260507165321 | 85 | 344 | 4.3 | 13.0 | 0.00 | 0.00 | 0.00 | 79 | 1008.5 |
| 20260507164809 | 85 | 341 | 8.7 | 13.0 | 0.00 | 0.00 | 0.00 | 79 | 1008.5 |
| 20260507164307 | 85 | 351 | 5.2 | 8.7 | 0.00 | 0.00 | 0.00 | 78 | 1008.3 |
| 20260507163756 | 85 | 17 | 1.7 | 7.0 | 0.00 | 0.00 | 0.00 | 78 | 1008.5 |
| 20260507163212 | 85 | 25 | 0.0 | 4.3 | 0.00 | 0.00 | 0.00 | 78 | 1008.5 |
| 20260507162245 | 85 | 26 | 0.0 | 7.0 | 0.00 | 0.00 | 0.00 | 78 | 1008.4 |
| 20260507161715 | 85 | 11 | 0.0 | 7.0 | 0.00 | 0.00 | 0.00 | 78 | 1008.5 |
| 20260507161205 | 86 | 347 | 1.7 | 7.0 | 0.00 | 0.00 | 0.00 | 77 | 1008.5 |
| 20260507160700 | 86 | 1 | 0.0 | 4.3 | 0.00 | 0.00 | 0.00 | 77 | 1008.8 |
| 20260507160153 | 86 | 30 | 0.9 | 4.3 | 0.00 | 0.00 | 0.00 | 76 | 1008.7 |
| 20260507155642 | 86 | 39 | 0.0 | 4.3 | 0.00 | 0.00 | 0.00 | 76 | 1008.6 |
| 20260507155133 | 86 | 25 | 0.0 | 7.0 | 0.00 | 0.00 | 0.00 | 76 | 1008.6 |
| 20260507154625 | 86 | 40 | 0.0 | 7.0 | 0.00 | 0.00 | 0.00 | 76 | 1008.5 |
| 20260507154453 | 86 | 310 | 2.6 | 4.3 | 0.00 | 0.00 | 0.00 | 76 | 1008.8 |
| 20260507153608 | 86 | 23 | 0.0 | 8.7 | 0.00 | 0.00 | 0.00 | 76 | 1008.7 |
| 20260507153111 | 86 | 67 | 6.1 | 8.7 | 0.00 | 0.00 | 0.00 | 76 | 1008.8 |
| 20260507152552 | 86 | 30 | 0.0 | 7.0 | 0.00 | 0.00 | 0.00 | 76 | 1008.6 |
| 20260507152045 | 86 | 23 | 0.9 | 7.0 | 0.00 | 0.00 | 0.00 | 76 | 1008.9 |
| 20260507151535 | 86 | 28 | 0.0 | 7.0 | 0.00 | 0.00 | 0.00 | 76 | 1008.9 |
| 20260507151031 | 86 | 52 | 0.0 | 7.0 | 0.00 | 0.00 | 0.00 | 76 | 1008.9 |
| 20260507150521 | 86 | 73 | 4.3 | 7.0 | 0.00 | 0.00 | 0.00 | 76 | 1008.8 |
| 20260507150006 | 86 | 50 | 4.3 | 7.0 | 0.00 | 0.00 | 0.00 | 76 | 1008.8 |
| 20260507145447 | 86 | 22 | 0.0 | 7.0 | 0.00 | 0.00 | 0.00 | 76 | 1009.0 |
| 20260507144935 | 87 | 36 | 0.0 | 8.7 | 0.00 | 0.00 | 0.00 | 76 | 1008.8 |
| 20260507144425 | 87 | 25 | 0.0 | 8.7 | 0.00 | 0.00 | 0.00 | 75 | 1009.0 |
| 20260507143921 | 87 | 73 | 3.5 | 11.3 | 0.00 | 0.00 | 0.00 | 76 | 1009.0 |
| 20260507143417 | 87 | 95 | 7.8 | 11.3 | 0.00 | 0.00 | 0.00 | 75 | 1009.0 |
| 20260507142959 | 87 | 84 | 2.6 | 7.0 | 0.00 | 0.00 | 0.00 | 75 | 1008.8 |
| 20260507141835 | 87 | 19 | 0.9 | 8.7 | 0.00 | 0.00 | 0.00 | 75 | 1008.9 |
| 20260507141330 | 87 | 22 | 0.0 | 11.3 | 0.00 | 0.00 | 0.00 | 75 | 1008.6 |
| 20260507141211 | 87 | 52 | 0.0 | 11.3 | 0.00 | 0.00 | 0.00 | 75 | 1008.9 |
| 20260507140311 | 87 | 108 | 2.6 | 11.3 | 0.00 | 0.00 | 0.00 | 75 | 1008.9 |
| 20260507135804 | 87 | 306 | 3.5 | 11.3 | 0.00 | 0.00 | 0.00 | 75 | 1008.7 |
| 20260507135252 | 87 | 124 | 2.6 | 13.0 | 0.00 | 0.00 | 0.00 | 75 | 1008.9 |
| 20260507135145 | 87 | 350 | 3.5 | 17.4 | 0.00 | 0.00 | 0.00 | 75 | 1008.6 |
| 20260507134238 | 87 | 18 | 0.9 | 17.4 | 0.00 | 0.00 | 0.00 | 75 | 1008.8 |
| 20260507133732 | 87 | 179 | 0.9 | 11.3 | 0.00 | 0.00 | 0.00 | 75 | 1008.7 |
| 20260507133632 | 87 | 300 | 0.9 | 7.0 | 0.00 | 0.00 | 0.00 | 75 | 1008.8 |
| 20260507132714 | 87 | 189 | 0.0 | 8.7 | 0.00 | 0.00 | 0.00 | 75 | 1008.8 |
| 20260507132207 | 87 | 44 | 0.9 | 13.0 | 0.00 | 0.00 | 0.00 | 75 | 1008.6 |
| 20260507131703 | 87 | 21 | 0.9 | 13.0 | 0.00 | 0.00 | 0.00 | 74 | 1008.5 |
| 20260507131150 | 87 | 101 | 5.2 | 11.3 | 0.00 | 0.00 | 0.00 | 74 | 1008.4 |
| 20260507130644 | 87 | 40 | 2.6 | 8.7 | 0.00 | 0.00 | 0.00 | 74 | 1008.7 |
| 20260507130148 | 87 | 36 | 0.0 | 11.3 | 0.00 | 0.00 | 0.00 | 74 | 1008.4 |
| 20260507130029 | 88 | 213 | 1.7 | 11.3 | 0.00 | 0.00 | 0.00 | 73 | 1008.5 |